sat.trackr.live / text

‹ back to catalog

STARLINK-34712

NORAD 64907 · 2025-157D

PAYLOAD ACTIVE UNKNOWN

§ Identity

Operator
Country
US
Launch date
2025-07-26
Launch site
AFETR
Launch vehicle
Mass (kg)
RCS (m²)

Purposes: comms

External: N2YO · Heavens-Above · Gunter

§ Orbital elements

Epoch: 2026-09-20T02:06:56.525472Z

Period
93.85 min
Inclination
53.1573°
Eccentricity
0.0001092
Mean motion
15.34407219 rev/d
Perigee alt
461.9 km
Apogee alt
463.4 km
Semi-major
6,840.8 km
B*
4.8557e-4
RAAN
157.9905°
Arg perigee
93.5251°
Mean anomaly
266.5877°
Rev number
6,595

§ Raw data

STARLINK-347121 64907U 25157D   26263.08815423  .00016068  00000+0  48557-3 0  99982 64907  53.1573 157.9905 0001092  93.5251 266.5877 15.34407219 65957

JSON: /api/v1/satellites/64907 · /tle

For live sub-satellite position, see the globe view (requires WebGL).

§ Visibility from observer

Set your observer location to see the next 7 days of passes ≥ 10°. The values pass through the URL so the page stays shareable.

No JS? Fill the form by hand. The geolocation button needs JavaScript.